Weather History for KSEP - January, 2012

Change the Weather History Date:

Sunday, January 1, 2012

  Actual Average Record
Temperature  
Mean Temperature 47 °F -  
Max Temperature 55 °F 50 °F 82 °F (2006)
Min Temperature 39 °F 29 °F 14 °F (1974)
Degree Days  
Heating Degree Days 18    
Moisture  
Dew Point 28 °F    
Average Humidity 47    
Maximum Humidity 70    
Minimum Humidity 26    
Precipitation  
Precipitation 0.00 in - - ()
Sea Level Pressure  
Sea Level Pressure 30.49 in    
Wind  
Wind Speed 13 mph (NNW)    
Max Wind Speed 21 mph    
Max Gust Speed 34 mph    
Visibility 10 miles    
Events      
Averages and records for this station are not official NWS values.
T = Trace of Precipitation, MM = Missing Value Source: NWS Daily Summary

Daily Weather History Graph

Daily Weather History Graph

Search for Another Location

Airport or City:

Trip Planner

Search our weather history database for the weather conditions in past years. The results will help you decide how hot, cold, wet, or windy it might be!

Date:

Astronomy

Jan. 01, 2012 Rise Set
Actual Time 7:33 AM CST 5:38 PM CST
Civil Twilight 7:06 AM CST 6:05 PM CST
Nautical Twilight 6:36 AM CST 6:36 PM CST
Astronomical Twilight 6:06 AM CST 7:06 PM CST
Moon 12:16 PM CST (1/1) 12:43 AM CST (1/1)
Length of Visible Light 10h 58m
Length of Day
10h 04m
First Quarter, 55% of the Moon is Illuminated
Jan 1
First Quarter
Jan 9
Full
Jan 16
Last Quarter
Jan 23
New
Jan 30
First Quarter

Hourly Weather History & Observations

Time (CST) Temp. Windchill Dew Point Humidity Pressure Visibility Wind Dir Wind Speed Gust Speed Precip Events Conditions
12:15 AM 53.6 °F - 24.8 °F 33% 30.26 in 10.0 mi North 16.1 mph 34.5 mph N/A   Clear
12:35 AM 51.8 °F - 26.6 °F 38% 30.27 in 10.0 mi NNW 13.8 mph - N/A   Clear
12:55 AM 50.0 °F - 28.4 °F 43% 30.29 in 10.0 mi NNW 16.1 mph 28.8 mph N/A   Clear
1:15 AM 50.0 °F - 30.2 °F 47% 30.30 in 10.0 mi NNW 20.7 mph 27.6 mph N/A   Clear
1:35 AM 48.2 °F - 30.2 °F 50% 30.31 in 10.0 mi North 19.6 mph 29.9 mph N/A   Clear
1:55 AM 46.4 °F 39.0 °F 30.2 °F 53% 30.33 in 10.0 mi NNW 19.6 mph 28.8 mph N/A   Clear
2:15 AM 46.4 °F 39.2 °F 30.2 °F 53% 30.34 in 10.0 mi NNW 18.4 mph 26.5 mph N/A   Clear
2:35 AM 46.4 °F 40.4 °F 30.2 °F 53% 30.34 in 10.0 mi North 13.8 mph 23.0 mph N/A   Clear
2:55 AM 44.6 °F 38.1 °F 30.2 °F 57% 30.36 in 10.0 mi North 13.8 mph 18.4 mph N/A   Clear
3:15 AM 44.6 °F 38.4 °F 30.2 °F 57% 30.36 in 10.0 mi North 12.7 mph 19.6 mph N/A   Clear
3:35 AM 44.6 °F 38.8 °F 30.2 °F 57% 30.37 in 10.0 mi North 11.5 mph 17.3 mph N/A   Clear
3:55 AM 44.6 °F 39.2 °F 30.2 °F 57% 30.38 in 10.0 mi NNW 10.4 mph - N/A   Clear
4:15 AM 42.8 °F 38.0 °F 30.2 °F 61% 30.39 in 10.0 mi NNW 8.1 mph - N/A   Clear
4:35 AM 42.8 °F 36.6 °F 30.2 °F 61% 30.39 in 10.0 mi North 11.5 mph - N/A   Clear
4:55 AM 42.8 °F 37.5 °F 30.2 °F 61% 30.39 in 10.0 mi North 9.2 mph - N/A   Clear
5:15 AM 42.8 °F 36.2 °F 30.2 °F 61% 30.40 in 10.0 mi North 12.7 mph - N/A   Clear
5:35 AM 41.0 °F 34.7 °F 30.2 °F 65% 30.41 in 10.0 mi North 10.4 mph 16.1 mph N/A   Clear
5:55 AM 41.0 °F 33.5 °F 30.2 °F 65% 30.42 in 10.0 mi North 13.8 mph - N/A   Clear
6:15 AM 42.8 °F 35.8 °F 30.2 °F 61% 30.43 in 10.0 mi NNW 13.8 mph 21.9 mph N/A   Clear
6:35 AM 41.0 °F 33.9 °F 30.2 °F 65% 30.44 in 10.0 mi NNW 12.7 mph - N/A   Clear
6:55 AM 41.0 °F 34.3 °F 30.2 °F 65% 30.45 in 10.0 mi NNW 11.5 mph - N/A   Clear
7:15 AM 41.0 °F 34.3 °F 30.2 °F 65% 30.47 in 10.0 mi NNW 11.5 mph - N/A   Clear
7:35 AM 39.2 °F 33.0 °F 30.2 °F 70% 30.48 in 10.0 mi NNW 9.2 mph - N/A   Clear
7:55 AM 41.0 °F 33.9 °F 30.2 °F 65% 30.50 in 10.0 mi NNW 12.7 mph - N/A   Clear
8:15 AM 41.0 °F 33.5 °F 30.2 °F 65% 30.51 in 10.0 mi NNW 13.8 mph 18.4 mph N/A   Clear
8:35 AM 41.0 °F 33.9 °F 30.2 °F 65% 30.52 in 10.0 mi NNW 12.7 mph - N/A   Clear
8:55 AM 42.8 °F 35.8 °F 28.4 °F 57% 30.53 in 10.0 mi NNW 13.8 mph 19.6 mph N/A   Clear
9:15 AM 44.6 °F 38.4 °F 28.4 °F 53% 30.55 in 10.0 mi North 12.7 mph 19.6 mph N/A   Clear
9:35 AM 44.6 °F 39.2 °F 28.4 °F 53% 30.56 in 10.0 mi North 10.4 mph - N/A   Clear
9:55 AM 44.6 °F 37.8 °F 28.4 °F 53% 30.57 in 10.0 mi North 15.0 mph 19.6 mph N/A   Clear
10:15 AM 46.4 °F 40.4 °F 28.4 °F 50% 30.59 in 10.0 mi NNW 13.8 mph 17.3 mph N/A   Clear
10:35 AM 46.4 °F 40.7 °F 28.4 °F 50% 30.60 in 10.0 mi North 12.7 mph 18.4 mph N/A   Clear
10:55 AM 50.0 °F - 28.4 °F 43% 30.60 in 10.0 mi North 10.4 mph 16.1 mph N/A   Clear
11:15 AM 50.0 °F - 28.4 °F 43% 30.60 in 10.0 mi NNW 13.8 mph 17.3 mph N/A   Clear
11:35 AM 51.8 °F - 28.4 °F 41% 30.60 in 10.0 mi North 10.4 mph - N/A   Clear
11:55 AM 51.8 °F - 26.6 °F 38% 30.60 in 10.0 mi NW 6.9 mph - N/A   Clear
12:15 PM 51.8 °F - 26.6 °F 38% 30.59 in 10.0 mi North 8.1 mph - N/A   Clear
12:35 PM 51.8 °F - 26.6 °F 38% 30.59 in 10.0 mi NNW 8.1 mph - N/A   Clear
12:55 PM 53.6 °F - 28.4 °F 38% 30.58 in 10.0 mi NW 8.1 mph - N/A   Clear
1:15 PM 53.6 °F - 26.6 °F 35% 30.57 in 10.0 mi NW 9.2 mph - N/A   Clear
1:35 PM 53.6 °F - 26.6 °F 35% 30.57 in 10.0 mi NNW 9.2 mph - N/A   Clear
1:55 PM 53.6 °F - 24.8 °F 33% 30.56 in 10.0 mi NNW 6.9 mph - N/A   Clear
2:15 PM 55.4 °F - 23.0 °F 29% 30.56 in 10.0 mi NNW 9.2 mph - N/A   Clear
2:35 PM 55.4 °F - 24.8 °F 31% 30.56 in 10.0 mi North 11.5 mph - N/A   Clear
2:55 PM 55.4 °F - 23.0 °F 29% 30.55 in 10.0 mi North 10.4 mph - N/A   Clear
3:15 PM 55.4 °F - 23.0 °F 29% 30.55 in 10.0 mi NNW 8.1 mph - N/A   Clear
3:35 PM 55.4 °F - 23.0 °F 29% 30.56 in 10.0 mi NNW 10.4 mph - N/A   Clear
3:55 PM 55.4 °F - 23.0 °F 29% 30.56 in 10.0 mi NNW 11.5 mph - N/A   Clear
4:15 PM 55.4 °F - 21.2 °F 26% 30.56 in 10.0 mi NNW 12.7 mph - N/A   Clear
4:35 PM 55.4 °F - 21.2 °F 26% 30.57 in 10.0 mi North 11.5 mph - N/A   Clear
4:55 PM 53.6 °F - 23.0 °F 30% 30.57 in 10.0 mi NNW 13.8 mph - N/A   Clear
5:15 PM 53.6 °F - 23.0 °F 30% 30.58 in 10.0 mi North 10.4 mph - N/A   Clear
5:35 PM 51.8 °F - 23.0 °F 33% 30.58 in 10.0 mi NNW 9.2 mph - N/A   Clear
5:55 PM 50.0 °F - 23.0 °F 35% 30.58 in 10.0 mi North 5.8 mph - N/A   Clear
6:15 PM 48.2 °F - 24.8 °F 40% 30.59 in 10.0 mi NNW 5.8 mph - N/A   Clear
6:35 PM 46.4 °F 43.5 °F 26.6 °F 46% 30.59 in 10.0 mi NNW 5.8 mph - N/A   Clear
6:55 PM 44.6 °F 42.2 °F 26.6 °F 49% 30.59 in 10.0 mi NNW 4.6 mph - N/A   Clear
7:15 PM 44.6 °F 42.2 °F 26.6 °F 49% 30.59 in 10.0 mi NW 4.6 mph - N/A   Clear
7:35 PM 44.6 °F 43.1 °F 26.6 °F 49% 30.60 in 10.0 mi NNW 3.5 mph - N/A   Clear
7:55 PM 42.8 °F 39.3 °F 26.6 °F 53% 30.61 in 10.0 mi NNW 5.8 mph - N/A   Clear
8:15 PM 42.8 °F 39.3 °F 26.6 °F 53% 30.62 in 10.0 mi NNW 5.8 mph - N/A   Clear
8:35 PM 42.8 °F 40.1 °F 26.6 °F 53% 30.62 in 10.0 mi NNW 4.6 mph - N/A   Clear
8:55 PM 42.8 °F 40.1 °F 26.6 °F 53% 30.63 in 10.0 mi NNW 4.6 mph - N/A   Clear
9:15 PM 41.0 °F 37.1 °F 26.6 °F 57% 30.63 in 10.0 mi NW 5.8 mph - N/A   Clear
9:35 PM 41.0 °F 38.0 °F 26.6 °F 57% 30.63 in 10.0 mi NW 4.6 mph - N/A   Clear
9:55 PM 41.0 °F 38.0 °F 26.6 °F 57% 30.63 in 10.0 mi NW 4.6 mph - N/A   Clear
10:15 PM 39.2 °F 35.9 °F 26.6 °F 61% 30.64 in 10.0 mi NW 4.6 mph - N/A   Clear
10:35 PM 37.4 °F 32.8 °F 26.6 °F 65% 30.64 in 10.0 mi NW 5.8 mph - N/A   Clear
10:55 PM 37.4 °F 32.8 °F 26.6 °F 65% 30.65 in 10.0 mi NW 5.8 mph - N/A   Clear
11:15 PM 37.4 °F 32.8 °F 26.6 °F 65% 30.65 in 10.0 mi NW 5.8 mph - N/A   Clear
11:35 PM 35.6 °F 30.7 °F 26.6 °F 70% 30.65 in 10.0 mi NW 5.8 mph - N/A   Clear
11:55 PM 35.6 °F 30.7 °F 26.6 °F 70% 30.65 in 10.0 mi NW 5.8 mph - N/A   Clear